Tracking 30415 objects as of 14-May-2025
HD Live streaming from Space Station
objects crossing your sky now

THORAD AGENA D DEB

Track THORAD AGENA D DEB now!
10-day predictions


NORAD ID: 4753
Int'l Code: 1970-025DB
Perigee: 953.4 km
Apogee: 961.3 km
Inclination: 100.0 °
Period: 104.1 minutes
Semi major axis: 7328 km
RCS: 0.0848 m2 (small)
Launch date: April 8, 1970
Source: United States (US)
Launch site: AIR FORCE WESTERN TEST RANGE (AFWTR)

Note: This is SATELLITE DEBRIS
Your satellite tracking list
Your tracking list is empty




NASA's NSSDC Master Catalog

Two Line Element Set (TLE):
1  4753U 70025DB  25134.23747263  .00001495  00000-0  13920-2 0  9998
2  4753  99.9730 235.6735 0005399 245.0058 115.0533 13.83871385748115
Source of the keplerian elements: AFSPC